VTK601 USPP-URMM

Flight info

Callsign VTK601
Flight time 2h 39m
Altitude 32000
Route ULPET1L ULPET W63 INGEN T765 GEMKI/K0795F280 T690 KUPOK/K0826F320 T690 IDLET T790 RORNA T789 OGRER/K0824F340 T789 DAFOS P135 UROBO R807 NIRGA A835 DEPSO DEPSO5A
Aircraft MD82/M-SDFGIRWY/S

Departure

Time 2026-04-28 12:18
Airport Perm International Airport (USPP)

Arrival

Time 2026-04-28 14:57
Airport Mineralnye Vody Airport (URMM)
Time Latitude Longitude Altitude Speed Heading
2026-04-28 11:59 57.91539 56.01248 398 ft 0 kts 316°
2026-04-28 12:12 57.91529 56.01267 398 ft 2 kts 316°
2026-04-28 12:12 57.91510 56.01300 395 ft 4 kts 316°
2026-04-28 12:13 57.91498 56.01350 398 ft 3 kts 263°
2026-04-28 12:13 57.91498 56.01351 398 ft 0 kts 263°
2026-04-28 12:13 57.91489 56.01322 397 ft 5 kts 227°
2026-04-28 12:13 57.91438 56.01278 395 ft 10 kts 178°
2026-04-28 12:14 57.91364 56.01372 396 ft 16 kts 138°
2026-04-28 12:14 57.91278 56.01529 396 ft 18 kts 135°
2026-04-28 12:14 57.91256 56.01727 399 ft 16 kts 63°
2026-04-28 12:14 57.91327 56.01894 400 ft 18 kts 46°
2026-04-28 12:15 57.91437 56.02107 398 ft 27 kts 46°
2026-04-28 12:15 57.91581 56.02386 400 ft 32 kts 46°
2026-04-28 12:15 57.91748 56.02712 400 ft 37 kts 46°
2026-04-28 12:15 57.91937 56.03078 396 ft 41 kts 45°
2026-04-28 12:16 57.92141 56.03468 401 ft 42 kts 46°
2026-04-28 12:16 57.92309 56.03793 399 ft 29 kts 46°
2026-04-28 12:16 57.92397 56.04022 398 ft 15 kts 73°
2026-04-28 12:16 57.92432 56.04081 395 ft 5 kts 328°
2026-04-28 12:17 57.92435 56.04047 398 ft 2 kts 249°
2026-04-28 12:17 57.92433 56.04041 398 ft 0 kts 228°
2026-04-28 12:17 57.92412 56.04002 395 ft 15 kts 225°
2026-04-28 12:17 57.92214 56.03618 400 ft 71 kts 226°
2026-04-28 12:18 57.91724 56.02674 401 ft 129 kts 225°
2026-04-28 12:18 57.91008 56.01222 487 ft 169 kts 227°
2026-04-28 12:18 57.90231 55.99495 1214 ft 167 kts 229°
2026-04-28 12:18 57.89512 55.97917 2133 ft 164 kts 224°
2026-04-28 12:19 57.88618 55.96249 2232 ft 200 kts 222°
2026-04-28 12:19 57.87595 55.94405 3003 ft 200 kts 223°
2026-04-28 12:19 57.86598 55.92561 3923 ft 201 kts 223°
2026-04-28 12:19 57.85587 55.90674 4642 ft 209 kts 225°
2026-04-28 12:20 57.84638 55.88551 5259 ft 221 kts 230°
2026-04-28 12:20 57.83697 55.86199 5886 ft 230 kts 231°
2026-04-28 12:20 57.82729 55.83721 6476 ft 240 kts 231°
2026-04-28 12:20 57.81738 55.81144 7146 ft 245 kts 231°
2026-04-28 12:21 57.80726 55.78508 7900 ft 247 kts 231°
2026-04-28 12:21 57.79721 55.75894 8687 ft 246 kts 231°
2026-04-28 12:21 57.78706 55.73258 9352 ft 251 kts 232°
2026-04-28 12:21 57.77681 55.70616 10063 ft 254 kts 231°
2026-04-28 12:22 57.76598 55.67826 10253 ft 275 kts 231°
2026-04-28 12:22 57.75446 55.64869 10442 ft 294 kts 231°
2026-04-28 12:22 57.74199 55.61696 10630 ft 310 kts 231°
2026-04-28 12:22 57.72899 55.58404 11042 ft 317 kts 232°
2026-04-28 12:23 57.71592 55.55061 11685 ft 319 kts 232°
2026-04-28 12:23 57.70280 55.51711 12344 ft 320 kts 232°
2026-04-28 12:23 57.68960 55.48355 12993 ft 322 kts 232°
2026-04-28 12:23 57.67626 55.44966 13601 ft 325 kts 232°
2026-04-28 12:24 57.66284 55.41554 14185 ft 327 kts 232°
2026-04-28 12:24 57.64929 55.38115 14720 ft 330 kts 232°
2026-04-28 12:24 57.63558 55.34637 15230 ft 334 kts 232°
2026-04-28 12:24 57.62176 55.31132 15789 ft 337 kts 232°
2026-04-28 12:25 57.60782 55.27597 16369 ft 339 kts 232°
2026-04-28 12:25 57.59365 55.24043 16874 ft 343 kts 232°
2026-04-28 12:25 57.57919 55.20477 17401 ft 347 kts 232°
2026-04-28 12:25 57.56457 55.16884 17995 ft 349 kts 232°
2026-04-28 12:26 57.54988 55.13258 18490 ft 353 kts 232°
2026-04-28 12:26 57.53528 55.09638 18966 ft 355 kts 232°
2026-04-28 12:26 57.52046 55.05943 19485 ft 357 kts 232°
2026-04-28 12:26 57.50558 55.02222 19998 ft 359 kts 232°
2026-04-28 12:27 57.49065 54.98478 20461 ft 362 kts 232°
2026-04-28 12:27 57.47559 54.94695 20935 ft 366 kts 232°
2026-04-28 12:27 57.46040 54.90891 21463 ft 367 kts 232°
2026-04-28 12:27 57.44496 54.87043 21712 ft 376 kts 232°
2026-04-28 12:28 57.42926 54.83138 22156 ft 379 kts 232°
2026-04-28 12:28 57.41312 54.79260 22654 ft 381 kts 231°
2026-04-28 12:28 57.39658 54.75402 23097 ft 384 kts 231°
2026-04-28 12:28 57.37982 54.71518 23486 ft 387 kts 231°
2026-04-28 12:29 57.34620 54.63679 24336 ft 388 kts 231°
2026-04-28 12:29 57.32950 54.59753 24807 ft 387 kts 231°
2026-04-28 12:29 57.31282 54.55825 25194 ft 389 kts 230°
2026-04-28 12:30 57.29612 54.51893 25588 ft 390 kts 230°
2026-04-28 12:30 57.27936 54.47947 25991 ft 390 kts 230°
2026-04-28 12:30 57.26255 54.43996 26273 ft 394 kts 230°
2026-04-28 12:30 57.24548 54.39995 26543 ft 397 kts 230°
2026-04-28 12:31 57.22839 54.35990 26957 ft 397 kts 230°
2026-04-28 12:31 57.21130 54.31985 27325 ft 397 kts 230°
2026-04-28 12:31 57.19420 54.27982 27669 ft 398 kts 229°
2026-04-28 12:31 57.17688 54.23986 27978 ft 399 kts 229°
2026-04-28 12:32 57.15944 54.19998 28325 ft 400 kts 229°
2026-04-28 12:32 57.14198 54.16016 28684 ft 400 kts 229°
2026-04-28 12:32 57.12461 54.12046 29169 ft 396 kts 229°
2026-04-28 12:32 57.10746 54.08120 29703 ft 391 kts 229°
2026-04-28 12:33 57.09052 54.04236 30168 ft 387 kts 228°
2026-04-28 12:33 57.07359 54.00365 30315 ft 391 kts 229°
2026-04-28 12:33 57.05646 53.96455 30403 ft 394 kts 229°
2026-04-28 12:33 57.03932 53.92529 30603 ft 394 kts 229°
2026-04-28 12:34 57.02221 53.88603 30819 ft 394 kts 229°
2026-04-28 12:34 57.00510 53.84671 31037 ft 394 kts 229°
2026-04-28 12:34 56.98799 53.80738 31249 ft 395 kts 229°
2026-04-28 12:34 56.97090 53.76815 31483 ft 393 kts 229°
2026-04-28 12:35 56.95385 53.72900 31687 ft 394 kts 229°
2026-04-28 12:35 56.91931 53.65009 31831 ft 400 kts 229°
2026-04-28 12:36 56.88446 53.57067 31865 ft 400 kts 229°
2026-04-28 12:36 56.84970 53.49150 31866 ft 398 kts 229°
2026-04-28 12:37 56.81412 53.41408 31871 ft 397 kts 226°
2026-04-28 12:37 56.77623 53.34085 31872 ft 397 kts 225°
2026-04-28 12:38 56.73824 53.26786 31868 ft 397 kts 225°
2026-04-28 12:38 56.70048 53.19433 31885 ft 399 kts 226°
2026-04-28 12:39 56.66269 53.12028 31875 ft 399 kts 226°
2026-04-28 12:39 56.62478 53.04621 31869 ft 400 kts 225°
2026-04-28 12:40 56.58633 52.97306 31871 ft 401 kts 225°
2026-04-28 12:40 56.54772 52.90007 31870 ft 401 kts 225°
2026-04-28 12:41 56.50931 52.82715 31866 ft 399 kts 225°
2026-04-28 12:41 56.47096 52.75442 31868 ft 402 kts 225°
2026-04-28 12:42 56.43304 52.67980 31865 ft 404 kts 228°
2026-04-28 12:42 56.39746 52.60105 31862 ft 404 kts 229°
2026-04-28 12:43 56.36224 52.52226 31868 ft 402 kts 229°
2026-04-28 12:43 56.32684 52.44420 31867 ft 403 kts 229°
2026-04-28 12:44 56.29114 52.36633 31866 ft 403 kts 229°
2026-04-28 12:44 56.25534 52.28878 31862 ft 403 kts 229°
2026-04-28 12:45 56.21939 52.21162 31862 ft 403 kts 228°
2026-04-28 12:45 56.18339 52.13446 31859 ft 402 kts 228°
2026-04-28 12:46 56.14748 52.05748 31859 ft 403 kts 229°
2026-04-28 12:46 56.11148 51.98040 31861 ft 404 kts 229°
2026-04-28 12:47 56.08125 51.91576 31855 ft 404 kts 229°
2026-04-28 12:47 56.04508 51.83855 31849 ft 406 kts 228°
2026-04-28 12:48 56.00311 51.77187 31847 ft 403 kts 217°
2026-04-28 12:48 55.95837 51.71172 31846 ft 402 kts 217°
2026-04-28 12:49 55.91394 51.65103 31845 ft 403 kts 218°
2026-04-28 12:49 55.86976 51.58943 31848 ft 404 kts 218°
2026-04-28 12:50 55.82583 51.52772 31842 ft 406 kts 218°
2026-04-28 12:50 55.78162 51.46572 31840 ft 404 kts 218°
2026-04-28 12:51 55.73744 51.40433 31837 ft 402 kts 216°
2026-04-28 12:51 55.68782 51.35784 31839 ft 405 kts 206°
2026-04-28 12:52 55.63644 51.31756 31833 ft 402 kts 206°
2026-04-28 12:52 55.58565 51.27664 31845 ft 401 kts 207°
2026-04-28 12:53 55.53509 51.23474 31845 ft 401 kts 207°
2026-04-28 12:53 55.48459 51.19258 31847 ft 402 kts 207°
2026-04-28 12:54 55.43401 51.15053 31853 ft 402 kts 207°
2026-04-28 12:54 55.38330 51.10870 31869 ft 403 kts 207°
2026-04-28 12:55 55.33238 51.06718 31856 ft 404 kts 207°
2026-04-28 12:55 55.28102 51.02530 31859 ft 404 kts 207°
2026-04-28 12:56 55.23035 50.98406 31859 ft 405 kts 207°
2026-04-28 12:56 55.17920 50.94255 31818 ft 405 kts 207°
2026-04-28 12:57 55.12857 50.90168 31848 ft 397 kts 207°
2026-04-28 12:57 55.07894 50.86148 31870 ft 398 kts 207°
2026-04-28 12:58 55.02843 50.82067 31868 ft 401 kts 207°
2026-04-28 12:58 54.97759 50.77990 31867 ft 403 kts 207°
2026-04-28 12:59 54.92748 50.73983 31866 ft 401 kts 207°
2026-04-28 12:59 54.87681 50.69930 31878 ft 400 kts 207°
2026-04-28 13:00 54.82623 50.65892 31885 ft 400 kts 207°
2026-04-28 13:00 54.77549 50.61862 31882 ft 402 kts 208°
2026-04-28 13:01 54.72461 50.57821 31880 ft 402 kts 207°
2026-04-28 13:01 54.67382 50.53811 31882 ft 398 kts 208°
2026-04-28 13:02 54.62366 50.49880 31880 ft 393 kts 208°
2026-04-28 13:02 54.57380 50.45970 31889 ft 395 kts 208°
2026-04-28 13:03 54.52366 50.42042 31884 ft 397 kts 208°
2026-04-28 13:03 54.47334 50.38102 31887 ft 397 kts 208°
2026-04-28 13:04 54.42308 50.34175 31893 ft 396 kts 208°
2026-04-28 13:04 54.37361 50.30088 31899 ft 393 kts 212°
2026-04-28 13:05 54.32617 50.25419 31904 ft 394 kts 213°
2026-04-28 13:05 54.27883 50.20689 31908 ft 394 kts 213°
2026-04-28 13:06 54.23121 50.16027 31912 ft 395 kts 213°
2026-04-28 13:06 54.18355 50.11424 31887 ft 389 kts 213°
2026-04-28 13:07 54.13714 50.06968 31903 ft 384 kts 213°
2026-04-28 13:07 54.09052 50.02477 31919 ft 386 kts 213°
2026-04-28 13:08 54.04357 49.97970 31918 ft 388 kts 213°
2026-04-28 13:08 54.02147 49.95401 31930 ft 383 kts 225°
2026-04-28 13:08 54.00297 49.92149 31923 ft 383 kts 229°
2026-04-28 13:09 53.96781 49.85341 31915 ft 384 kts 230°
2026-04-28 13:09 53.93264 49.78522 31915 ft 384 kts 230°
2026-04-28 13:10 53.89708 49.71768 31916 ft 384 kts 229°
2026-04-28 13:10 53.86121 49.65051 31910 ft 384 kts 229°
2026-04-28 13:11 53.82525 49.58353 31911 ft 384 kts 229°
2026-04-28 13:11 53.78940 49.51682 31910 ft 382 kts 229°
2026-04-28 13:12 53.75352 49.45042 31910 ft 383 kts 228°
2026-04-28 13:12 53.71719 49.38458 31911 ft 384 kts 228°
2026-04-28 13:13 53.68077 49.31864 31922 ft 384 kts 229°
2026-04-28 13:13 53.64441 49.25253 31919 ft 384 kts 229°
2026-04-28 13:14 53.60833 49.18691 31921 ft 380 kts 229°
2026-04-28 13:14 53.57246 49.12171 31924 ft 380 kts 229°
2026-04-28 13:15 53.53647 49.05648 31928 ft 381 kts 229°
2026-04-28 13:15 53.50033 48.99114 31926 ft 382 kts 229°
2026-04-28 13:16 53.46416 48.92582 31916 ft 382 kts 229°
2026-04-28 13:16 53.42783 48.86093 31924 ft 380 kts 229°
2026-04-28 13:17 53.39171 48.79652 31926 ft 379 kts 229°
2026-04-28 13:17 53.35589 48.73245 31928 ft 380 kts 229°
2026-04-28 13:18 53.31956 48.66741 31929 ft 380 kts 229°
2026-04-28 13:18 53.28365 48.60329 31929 ft 380 kts 229°
2026-04-28 13:19 53.24719 48.53838 31934 ft 381 kts 229°
2026-04-28 13:19 53.21092 48.47385 31934 ft 381 kts 229°
2026-04-28 13:20 53.17458 48.40934 31887 ft 381 kts 229°
2026-04-28 13:20 53.13853 48.34589 31925 ft 373 kts 229°
2026-04-28 13:21 53.10486 48.28090 31950 ft 370 kts 242°
2026-04-28 13:21 53.08464 48.20142 31938 ft 376 kts 247°
2026-04-28 13:22 53.06593 48.11980 31946 ft 380 kts 248°
2026-04-28 13:22 53.04683 48.03771 31937 ft 380 kts 247°
2026-04-28 13:23 53.02742 47.95678 31942 ft 378 kts 246°
2026-04-28 13:23 53.00773 47.87587 31941 ft 378 kts 246°
2026-04-28 13:24 52.98797 47.79485 31941 ft 379 kts 246°
2026-04-28 13:24 52.96822 47.71377 31940 ft 379 kts 247°
2026-04-28 13:25 52.94849 47.63266 31940 ft 378 kts 246°
2026-04-28 13:25 52.92865 47.55209 31947 ft 377 kts 246°
2026-04-28 13:26 52.90878 47.47162 31936 ft 378 kts 246°
2026-04-28 13:26 52.88855 47.39115 31935 ft 378 kts 246°
2026-04-28 13:27 52.86839 47.31073 31932 ft 378 kts 246°
2026-04-28 13:27 52.85154 47.24322 31934 ft 379 kts 247°
2026-04-28 13:28 52.83150 47.16258 31944 ft 379 kts 246°
2026-04-28 13:28 52.81980 47.12362 31945 ft 379 kts 234°
2026-04-28 13:28 52.80076 47.09339 31955 ft 386 kts 218°
2026-04-28 13:29 52.75333 47.05036 31934 ft 390 kts 212°
2026-04-28 13:29 52.70479 47.01000 31938 ft 390 kts 212°
2026-04-28 13:30 52.65653 46.96953 31942 ft 388 kts 213°
2026-04-28 13:30 52.60879 46.92831 31957 ft 387 kts 213°
2026-04-28 13:31 52.53727 46.86595 31957 ft 388 kts 213°
2026-04-28 13:31 52.48945 46.82449 31960 ft 389 kts 213°
2026-04-28 13:32 52.44150 46.78340 31941 ft 387 kts 213°
2026-04-28 13:32 52.39378 46.74254 31959 ft 387 kts 213°
2026-04-28 13:33 52.34599 46.70155 31959 ft 389 kts 213°
2026-04-28 13:33 52.29804 46.66056 31970 ft 389 kts 213°
2026-04-28 13:34 52.24999 46.61960 31983 ft 389 kts 213°
2026-04-28 13:34 52.20198 46.57877 31978 ft 388 kts 213°
2026-04-28 13:35 52.15412 46.53821 31976 ft 388 kts 213°
2026-04-28 13:35 52.10595 46.49772 31976 ft 390 kts 213°
2026-04-28 13:36 52.05792 46.45734 31976 ft 391 kts 213°
2026-04-28 13:36 52.00971 46.41680 31979 ft 390 kts 213°
2026-04-28 13:37 51.96159 46.37656 32002 ft 389 kts 213°
2026-04-28 13:37 51.91346 46.33630 31974 ft 389 kts 212°
2026-04-28 13:38 51.86522 46.29597 31993 ft 392 kts 212°
2026-04-28 13:38 51.81663 46.25554 31996 ft 393 kts 212°
2026-04-28 13:39 51.76814 46.21529 31997 ft 391 kts 212°
2026-04-28 13:39 51.71973 46.17539 31998 ft 390 kts 212°
2026-04-28 13:40 51.67130 46.13543 31997 ft 392 kts 212°
2026-04-28 13:40 51.62262 46.09526 32000 ft 393 kts 212°
2026-04-28 13:41 51.57378 46.05506 32002 ft 394 kts 212°
2026-04-28 13:41 51.52471 46.01615 32006 ft 393 kts 211°
2026-04-28 13:42 51.47522 45.97894 32010 ft 393 kts 210°
2026-04-28 13:42 51.42556 45.94156 32010 ft 396 kts 211°
2026-04-28 13:43 51.37571 45.90376 32009 ft 396 kts 210°
2026-04-28 13:43 51.32604 45.86604 32021 ft 394 kts 210°
2026-04-28 13:44 51.27647 45.82849 32025 ft 394 kts 210°
2026-04-28 13:44 51.22690 45.79101 32001 ft 395 kts 210°
2026-04-28 13:45 51.17722 45.75351 32024 ft 395 kts 210°
2026-04-28 13:45 51.12744 45.71615 32032 ft 396 kts 210°
2026-04-28 13:46 51.07759 45.67887 32030 ft 396 kts 210°
2026-04-28 13:46 51.02745 45.64258 32033 ft 399 kts 204°
2026-04-28 13:47 50.97292 45.62152 32030 ft 405 kts 198°
2026-04-28 13:47 50.91769 45.60354 32005 ft 405 kts 198°
2026-04-28 13:48 50.86263 45.58467 32033 ft 405 kts 199°
2026-04-28 13:48 50.80808 45.56515 32044 ft 405 kts 199°
2026-04-28 13:49 50.75315 45.54541 32047 ft 405 kts 199°
2026-04-28 13:49 50.69814 45.52604 32044 ft 405 kts 199°
2026-04-28 13:50 50.64308 45.50685 32044 ft 406 kts 199°
2026-04-28 13:50 50.58791 45.48763 32045 ft 406 kts 198°
2026-04-28 13:51 50.53284 45.46845 32019 ft 404 kts 198°
2026-04-28 13:51 50.47795 45.44937 32047 ft 405 kts 198°
2026-04-28 13:52 50.42283 45.43032 32036 ft 405 kts 198°
2026-04-28 13:52 50.36765 45.41123 32051 ft 406 kts 198°
2026-04-28 13:53 50.31239 45.39227 32059 ft 407 kts 198°
2026-04-28 13:53 50.25702 45.37331 32064 ft 407 kts 198°
2026-04-28 13:54 50.20170 45.35443 32061 ft 407 kts 198°
2026-04-28 13:54 50.14628 45.33553 32056 ft 408 kts 198°
2026-04-28 13:55 50.09125 45.31674 32070 ft 409 kts 198°
2026-04-28 13:55 50.03575 45.29791 32071 ft 408 kts 198°
2026-04-28 13:56 49.98065 45.27695 32066 ft 407 kts 201°
2026-04-28 13:56 49.92637 45.25234 32067 ft 406 kts 202°
2026-04-28 13:57 49.87218 45.22767 32063 ft 405 kts 201°
2026-04-28 13:57 49.81803 45.20357 32069 ft 405 kts 201°
2026-04-28 13:58 49.76370 45.17978 32055 ft 406 kts 201°
2026-04-28 13:58 49.70925 45.15604 32072 ft 407 kts 201°
2026-04-28 13:59 49.65466 45.13227 32079 ft 408 kts 201°
2026-04-28 13:59 49.59994 45.10866 32081 ft 409 kts 201°
2026-04-28 14:00 49.54508 45.08513 32083 ft 409 kts 201°
2026-04-28 14:00 49.49044 45.06162 32082 ft 407 kts 201°
2026-04-28 14:01 49.43638 45.03835 32088 ft 407 kts 201°
2026-04-28 14:01 49.38177 45.01484 32085 ft 408 kts 201°
2026-04-28 14:02 49.32711 44.99141 32078 ft 409 kts 201°
2026-04-28 14:02 49.27229 44.96800 32089 ft 409 kts 201°
2026-04-28 14:03 49.21737 44.94468 32090 ft 410 kts 201°
2026-04-28 14:03 49.16235 44.92141 32093 ft 410 kts 200°
2026-04-28 14:04 49.10742 44.89814 32088 ft 409 kts 201°
2026-04-28 14:04 49.05266 44.87495 32095 ft 409 kts 201°
2026-04-28 14:05 48.99776 44.85171 32096 ft 410 kts 201°
2026-04-28 14:05 48.94280 44.82852 32087 ft 410 kts 200°
2026-04-28 14:06 48.89715 44.80932 32096 ft 410 kts 200°
2026-04-28 14:06 48.84211 44.78622 32099 ft 410 kts 201°
2026-04-28 14:07 48.78769 44.76054 32105 ft 409 kts 204°
2026-04-28 14:07 48.73379 44.73301 32105 ft 409 kts 204°
2026-04-28 14:08 48.67988 44.70562 32107 ft 409 kts 203°
2026-04-28 14:08 48.62578 44.67860 32109 ft 409 kts 203°
2026-04-28 14:09 48.57173 44.65208 32090 ft 407 kts 203°
2026-04-28 14:09 48.51792 44.62580 32108 ft 406 kts 203°
2026-04-28 14:10 48.46424 44.59942 32114 ft 406 kts 203°
2026-04-28 14:10 48.41045 44.57308 32114 ft 406 kts 203°
2026-04-28 14:11 48.35666 44.54679 32114 ft 407 kts 203°
2026-04-28 14:11 48.30285 44.52051 32129 ft 407 kts 203°
2026-04-28 14:12 48.24903 44.49430 32122 ft 407 kts 203°
2026-04-28 14:12 48.19517 44.46812 32128 ft 407 kts 203°
2026-04-28 14:13 48.14131 44.44202 32112 ft 406 kts 203°
2026-04-28 14:13 48.08754 44.41602 32124 ft 406 kts 203°
2026-04-28 14:14 48.03373 44.39005 32129 ft 406 kts 203°
2026-04-28 14:14 47.97991 44.36413 32137 ft 406 kts 203°
2026-04-28 14:15 47.92597 44.33833 32137 ft 408 kts 202°
2026-04-28 14:15 47.87076 44.31751 32131 ft 410 kts 199°
2026-04-28 14:16 47.81540 44.29881 32140 ft 411 kts 199°
2026-04-28 14:16 47.75978 44.27945 32120 ft 410 kts 199°
2026-04-28 14:17 47.70441 44.25957 32136 ft 409 kts 199°
2026-04-28 14:17 47.64906 44.23953 32146 ft 409 kts 199°
2026-04-28 14:18 47.59332 44.21943 32147 ft 409 kts 199°
2026-04-28 14:18 47.53795 44.19957 32155 ft 410 kts 199°
2026-04-28 14:19 47.48243 44.17983 32157 ft 410 kts 199°
2026-04-28 14:19 47.42690 44.16019 32122 ft 410 kts 199°
2026-04-28 14:20 47.37188 44.14072 32144 ft 408 kts 199°
2026-04-28 14:20 47.31676 44.12118 32161 ft 407 kts 200°
2026-04-28 14:21 47.26119 44.10151 32168 ft 408 kts 200°
2026-04-28 14:21 47.20625 44.08210 32169 ft 409 kts 200°
2026-04-28 14:22 47.15090 44.06262 32170 ft 409 kts 200°
2026-04-28 14:22 47.09548 44.04316 32174 ft 410 kts 200°
2026-04-28 14:23 47.04002 44.02367 32158 ft 409 kts 200°
2026-04-28 14:23 46.98484 44.00439 32172 ft 406 kts 200°
2026-04-28 14:24 46.92983 43.98550 32177 ft 406 kts 199°
2026-04-28 14:24 46.87468 43.96669 32178 ft 407 kts 200°
2026-04-28 14:25 46.81954 43.94776 32184 ft 407 kts 200°
2026-04-28 14:25 46.76438 43.92879 32184 ft 407 kts 200°
2026-04-28 14:26 46.70922 43.90983 32160 ft 408 kts 200°
2026-04-28 14:26 46.65398 43.89093 32173 ft 406 kts 200°
2026-04-28 14:27 46.59903 43.87218 32182 ft 405 kts 200°
2026-04-28 14:27 46.54411 43.85347 32188 ft 406 kts 200°
2026-04-28 14:28 46.48915 43.83476 32198 ft 406 kts 200°
2026-04-28 14:28 46.43411 43.81620 32188 ft 406 kts 199°
2026-04-28 14:29 46.37898 43.79769 32195 ft 407 kts 199°
2026-04-28 14:29 46.32388 43.77910 32193 ft 407 kts 199°
2026-04-28 14:30 46.26867 43.76051 32192 ft 407 kts 200°
2026-04-28 14:30 46.21352 43.74197 32199 ft 406 kts 199°
2026-04-28 14:31 46.15851 43.72351 32194 ft 405 kts 199°
2026-04-28 14:31 46.10350 43.70511 32194 ft 406 kts 199°
2026-04-28 14:32 46.04830 43.68668 32179 ft 407 kts 199°
2026-04-28 14:32 45.99347 43.66853 32172 ft 407 kts 199°
2026-04-28 14:33 45.93772 43.65247 32172 ft 409 kts 197°
2026-04-28 14:33 45.88185 43.63726 32185 ft 409 kts 197°
2026-04-28 14:34 45.79804 43.61387 32180 ft 409 kts 198°
2026-04-28 14:35 45.74214 43.59802 32181 ft 410 kts 198°
2026-04-28 14:35 45.70612 43.58783 32172 ft 410 kts 198°
2026-04-28 14:37 45.67668 43.57946 32178 ft 410 kts 198°
2026-04-28 14:37 45.62069 43.56350 32172 ft 410 kts 197°
2026-04-28 14:38 45.56464 43.54776 32176 ft 411 kts 197°
2026-04-28 14:38 45.50853 43.53215 32175 ft 411 kts 197°
2026-04-28 14:39 45.45228 43.51649 31834 ft 415 kts 197°
2026-04-28 14:39 45.42399 43.50864 31144 ft 412 kts 197°
2026-04-28 14:39 45.39597 43.50096 30452 ft 408 kts 197°
2026-04-28 14:39 45.36831 43.49339 29704 ft 403 kts 197°
2026-04-28 14:40 45.34093 43.48590 28966 ft 397 kts 197°
2026-04-28 14:40 45.33215 43.48350 28745 ft 395 kts 197°
2026-04-28 14:40 45.28776 43.47124 27642 ft 387 kts 197°
2026-04-28 14:40 45.26116 43.46390 26981 ft 382 kts 197°
2026-04-28 14:41 45.23554 43.45682 26372 ft 378 kts 197°
2026-04-28 14:41 45.20985 43.44972 25739 ft 374 kts 197°
2026-04-28 14:41 45.18434 43.44267 25117 ft 372 kts 197°
2026-04-28 14:41 45.15903 43.43569 24490 ft 370 kts 197°
2026-04-28 14:42 45.13380 43.42874 23849 ft 368 kts 197°
2026-04-28 14:42 45.10866 43.42182 23130 ft 367 kts 197°
2026-04-28 14:42 45.08430 43.41396 22440 ft 359 kts 206°
2026-04-28 14:42 45.06219 43.39893 21774 ft 350 kts 214°
2026-04-28 14:43 45.04137 43.38159 21136 ft 345 kts 216°
2026-04-28 14:43 45.02095 43.36406 20536 ft 342 kts 216°
2026-04-28 14:43 45.00074 43.34666 19924 ft 339 kts 216°
2026-04-28 14:43 44.98066 43.32944 19309 ft 337 kts 215°
2026-04-28 14:44 44.96065 43.31247 18723 ft 334 kts 215°
2026-04-28 14:44 44.94072 43.29581 18098 ft 332 kts 214°
2026-04-28 14:44 44.92085 43.27939 17471 ft 329 kts 214°
2026-04-28 14:44 44.90112 43.26322 16865 ft 326 kts 214°
2026-04-28 14:45 44.88157 43.24726 16272 ft 323 kts 214°
2026-04-28 14:45 44.86217 43.23144 15693 ft 323 kts 213°
2026-04-28 14:45 44.84253 43.21540 15122 ft 329 kts 213°
2026-04-28 14:45 44.82938 43.20468 14755 ft 331 kts 213°
2026-04-28 14:46 44.80255 43.18283 13977 ft 333 kts 213°
2026-04-28 14:46 44.78256 43.16659 13338 ft 330 kts 213°
2026-04-28 14:46 44.76279 43.15056 12737 ft 326 kts 213°
2026-04-28 14:46 44.74319 43.13467 12144 ft 324 kts 213°
2026-04-28 14:47 44.72376 43.11893 11562 ft 321 kts 213°
2026-04-28 14:47 44.70472 43.10350 11005 ft 319 kts 213°
2026-04-28 14:47 44.68570 43.08808 10588 ft 311 kts 212°
2026-04-28 14:47 44.66730 43.07318 10337 ft 298 kts 212°
2026-04-28 14:48 44.64982 43.05906 10236 ft 282 kts 212°
2026-04-28 14:48 44.63337 43.04579 10188 ft 265 kts 213°
2026-04-28 14:48 44.61765 43.03310 10171 ft 258 kts 213°
2026-04-28 14:48 44.60200 43.02041 10159 ft 260 kts 212°
2026-04-28 14:49 44.58552 43.00933 10066 ft 265 kts 206°
2026-04-28 14:49 44.56838 42.99992 9923 ft 265 kts 204°
2026-04-28 14:49 44.55104 42.99083 9710 ft 266 kts 204°
2026-04-28 14:49 44.53374 42.98181 9538 ft 265 kts 203°
2026-04-28 14:50 44.51655 42.97284 9392 ft 263 kts 203°
2026-04-28 14:50 44.49944 42.96386 9132 ft 266 kts 204°
2026-04-28 14:50 44.48790 42.95773 8747 ft 267 kts 203°
2026-04-28 14:50 44.47072 42.94850 8250 ft 263 kts 203°
2026-04-28 14:51 44.45367 42.93925 7800 ft 261 kts 203°
2026-04-28 14:51 44.43680 42.93008 7372 ft 260 kts 202°
2026-04-28 14:51 44.42016 42.92031 6947 ft 260 kts 207°
2026-04-28 14:51 44.40007 42.90370 6692 ft 247 kts 213°
2026-04-28 14:52 44.38557 42.89055 6379 ft 251 kts 213°
2026-04-28 14:52 44.37568 42.88154 6063 ft 253 kts 212°
2026-04-28 14:52 44.36073 42.86834 5383 ft 255 kts 203°
2026-04-28 14:52 44.34389 42.86314 4603 ft 246 kts 172°
2026-04-28 14:53 44.32889 42.87139 4252 ft 224 kts 139°
2026-04-28 14:53 44.31813 42.88652 4200 ft 208 kts 130°
2026-04-28 14:53 44.30945 42.90169 3866 ft 193 kts 127°
2026-04-28 14:53 44.30225 42.91629 3616 ft 171 kts 122°
2026-04-28 14:54 44.29622 42.92946 3367 ft 151 kts 123°
2026-04-28 14:54 44.29091 42.94128 3065 ft 137 kts 122°
2026-04-28 14:54 44.28592 42.95217 2845 ft 129 kts 122°
2026-04-28 14:54 44.28122 42.96259 2706 ft 126 kts 122°
2026-04-28 14:55 44.27663 42.97288 2548 ft 127 kts 121°
2026-04-28 14:55 44.27193 42.98328 2420 ft 125 kts 122°
2026-04-28 14:55 44.26732 42.99358 2231 ft 127 kts 122°
2026-04-28 14:55 44.26263 43.00381 2035 ft 125 kts 122°
2026-04-28 14:56 44.25794 43.01413 1866 ft 126 kts 121°
2026-04-28 14:56 44.25330 43.02452 1713 ft 128 kts 121°
2026-04-28 14:56 44.24856 43.03484 1563 ft 125 kts 121°
2026-04-28 14:56 44.24387 43.04518 1412 ft 127 kts 119°
2026-04-28 14:57 44.23915 43.05578 1199 ft 129 kts 121°
2026-04-28 14:57 44.23597 43.06282 1086 ft 126 kts 123°
2026-04-28 14:57 44.23050 43.07490 1053 ft 83 kts 122°
2026-04-28 14:57 44.22862 43.07905 1050 ft 7 kts 122°
2026-04-28 14:58 44.22861 43.07906 1050 ft 0 kts 122°